MINOTAUR 4 R/B, 45877

Orbit data source: Space-Track

MINOTAUR 4 R/B, 45877 is space debris in LEO originally from a launch on Wed, 15 Jul 2020 UTC launched from the Wallops Island (WLPIS). Debris objects in space refer to the collection of defunct objects orbiting the Earth. Examples of debris include non-operational satellites, rocket bodies, and fragments generated from explosions, collisions, or faulty payload assembly.

Loading next visibility...
Identifier
45877, 2020-046E
Orbit
LEO
Country
Flag of USUS
Related business
Manufacturer
NGIS FSG
Mission
Spacecraft
Bus & Motor
ORION 38, Unknown motor
Mass
~500 kg wet, ~500 kg dry
Launch date (UTC)
2020-07-15 (6 years ago)
Launch vehicle
Unknown
Launch site
Wallops Island (WLPIS)
Object type
Payload
Rocket body
Debris
Shape & HBR
Cyl + 1 Nozzle, 0.8 m
Radar Cross Section
1.381 m², Large (>1 m²)

Expand to show TLE details & history
Last TLE update: 1 day ago

TLE from 1 day ago
0 MINOTAUR 4 R/B
1 45877U 20046E   26264.17639192  .00000848  00000-0  74344-4 0  9997
2 45877  53.9786 167.9713 0005219 250.3891 109.6548 15.07190618263394
Epoch: 2026-09-21T04:14Z
TLE epoch observation values (Epoch: 2026-09-21T04:14:00.261Z)
Latitude
0.00003°
Longitude
104.41026°
Altitude
546.984 km
Speed
7.589 km/s
True Right ascension
11h 11m 53s
True Declination
0° 00' 00"
Sunlit
Object was in daylight at epoch
Visualization orbit readout
Latitude
Unknown
Longitude
Unknown
Altitude
Unknown
Speed
Unknown
Apparent Right ascension
Unknown
Apparent Declination
Unknown
Sunlit
N/A
Visualization observer readout
Local Sidereal Time
23:41:34
Azimuth
Unknown
Elevation
Unknown
Doppler factor
Unknown
Orbital elements
Apogee altitude
548.526 km
Perigee altitude
541.3 km
Semi-major axis
6,923.05 km
Eccentricity
0.00052
Inclination
53.9786°
RAAN
167.9713°
Arg. of periapsis
250.3891°
True anomaly
109.71111°
Mean anomaly
109.6548°
Eccentric anomaly
109.68296°
Mean motion
3.76788 °/min
Orbital period
95.54 mins
BSTAR
0.000074344
Loading maneuver chart data...
Computing Atmospheric mass density...

Documentation

Showing up to 5 results
|